SCP
0 0 0 0 0 1 1 2 2 0 0 0 0 0 0 0 0 0 0 0 0 0 0 0 0 0 0 0 0 0 0 0 0 0 0 0 0 0 0 0 0 0 0
0 0 0 0 0 2 1 1 0 0 0 0 0 0 0 0 0 0 0 0 0 0 0 0 0 0 0 0 0 0 0 0 0 0 0 0 0 0 0 0 0 0 0
0 0 0 0 0 0 1 0 0 0 0 0 0 0 0 0 0 0 0 0 0 0 0 0 0 0 0 0 0 0 0 0 0 0 0 0 0 0 0 0 0 0 0
0 0 0 0 0 0 0 0 0 0 0 0 0 0 0 0 0 0 0 0 0 0 0 0 0 0 0 0 0 0 0 0 0 0 0 0 0 0 0 -0 -0 -0 -0
0 0 0 0 0 0 0 0 0 0 0 0 0 0 0 0 0 0 0 0 0 0 0 0 0 0 0 0 0 0 0 0 0 0 0 0 0 0 0 0 0 -0 0
0 0 0 0 0 0 0 0 0 0 0 0 0 0 0 0 0 0 0 0 0 0 0 0 0 0 0 0 0 0 0 0 0 0 0 0 0 0 0 0 0 0 0
0 0 0 0 0 0 0 0 0 0 0 0 0 0 0 0 0 0 0 0 0 0 0 0 0 0 0 0 0 0 0 0 0 0 0 0 0 0 0 0 0 0 0
0 0 0 0 0 0 0 0 0 0 0 0 0 0 0 0 0 0 0 0 0 0 0 0 0 0 0 0 0 0 0 0 0 0 0 0 0 0 0 0 0 0 0
0 0 0 0 0 0 0 0 0 0 0 0 0 0 0 0 0 0 0 0 0 0 0 0 0 0 0 0 0 0 0 0 0 0 0 0 0 0 0 0 0 0 0
0 0 0 0 0 0 0 0 0 0 0 0 0 0 0 0 0 0 0 0 0 0 0 0 0 0 0 0 0 0 0 0 0 0 0 0 0 0 0 0 0 0 0
0 0 0 0 0 0 0 0 0 0 0 0 0 0 0 0 0 0 0 0 0 0 0 0 0 0 0 0 0 0 0 0 0 0 0 0 0 0 0 0 0 0 0
0 0 0 0 0 0 0 0 0 0 0 0 0 0 0 0 0 0 0 0 0 0 0 0 0 0 0 0 0 0 0 0 0 0 0 0 0 0 0 0 0 0 0
-0 0 0 0 0 0 0 0 0 0 0 0 0 0 0 0 0 0 0 0 0 0 0 0 0 0 0 0 0 0 0 0 0 0 0 0 0 0 0 0 0 0 0
-0 0 0 0 0 0 0 0 0 0 0 0 0 0 0 0 0 0 0 0 0 0 0 0 0 0 0 0 0 0 0 0 0 0 0 0 0 0 0 0 0 0 0
0 0 0 0 -0 -0 -0 0 -0 -0 -0 -0 0 0 0 0 0 0 0 0 0 0 0 0 0 0 0 0 0 0 0 0 0 0 0 0 0 0 0 0 0 0 0
0 0 0 0 0 -0 -0 -0 -0 -0 -0 -0 -0 -0 0 -0 0 0 0 0 0 0 0 0 0 0 0 0 0 0 0 0 0 0 0 0 0 0 0 0 0 0 0
0 0 0 0 0 0 -0 -0 -0 -0 -0 -0 -0 -0 -0 -0 -0 0 0 0 0 0 0 0 0 0 0 0 0 0 0 0 0 0 0 0 0 0 0 0 0 -0 -0
0 0 0 -0 0 -0 0 0 0 0 -0 -0 -0 -0 -0 -0 -0 0 0 0 0 0 0 0 0 0 0 0 0 0 0 0 0 0 0 0 0 0 0 0 0 -0 -0
0 -0 -0 -0 0 0 0 0 0 0 0 -0 -0 -0 -0 -0 -0 0 0 0 0 0 0 0 0 0 0 0 0 0 0 0 0 0 0 0 0 0 0 0 -0 -0 0
-0 -0 -0 -0 -0 0 0 0 0 0 0 -0 -0 -0 -0 -0 -0 0 0 0 0 0 0 0 0 0 0 0 0 0 0 0 0 0 0 0 0 0 0 0 -0 0 0
-0 -0 -0 -0 0 0 0 0 0 0 0 0 -0 -0 -0 -0 -0 0 0 0 0 0 0 0 0 0 0 0 0 0 0 0 0 0 0 0 0 0 0 0 -0 0 0
0 0 0 0 0 0 0 0 0 0 0 0 -0 -0 -0 -0 0 0 0 0 0 0 0 0 0 0 0 0 0 0 0 0 0 0 0 0 0 0 0 0 0 0 0
0 0 0 0 0 0 -0 0 0 0 0 0 -0 -0 0 0 0 0 0 0 0 0 0 0 0 0 0 0 0 0 0 0 -0 -0 -0 0 0 0 0 0 0 0 0
0 0 0 0 0 0 0 0 0 0 0 0 0 0 0 0 0 0 0 0 0 0 0 0 0 0 0 0 0 -0 -0 -0 0 0 0 -0 0 0 0 0 0 0 0
0 0 0 0 0 0 0 0 0 0 0 0 0 0 0 0 0 0 0 0 0 0 0 0 0 0 0 -0 -0 -0 -0 -0 0 0 0 -0 -0 0 0 0 0 0 0
0 0 0 0 0 0 0 0 0 0 0 0 0 0 0 0 0 0 0 0 0 0 0 0 0 0 -0 -0 -0 -0 -0 -0 -0 0 0 0 0 0 0 0 0 0 0
Wind_Speed_500mb
71 72 62 55 53 48 57 66 72 77 90 78 64 62 61 59 54 50 40 41 40 37 31 25 23 18 14 11 11 12 14 19 28 33 34 27 16 21 12 9 25 32 25
76 82 77 66 54 46 50 68 76 86 82 74 67 64 63 59 59 54 47 44 40 35 30 25 20 14 11 12 14 14 20 24 30 37 35 23 22 19 26 26 28 36 38
77 85 85 74 63 46 62 57 67 75 79 70 60 63 65 62 62 49 44 44 40 38 32 24 21 15 16 14 15 17 25 26 27 34 38 31 26 38 39 40 41 47 48
76 78 86 84 68 53 61 66 63 79 76 64 60 64 65 62 56 52 49 48 44 38 31 22 19 16 16 16 22 20 24 29 28 26 28 30 31 41 46 51 55 51 52
83 75 75 77 68 53 58 77 65 74 71 66 66 61 57 55 59 58 55 51 42 35 24 22 20 14 18 20 18 22 30 28 24 23 25 27 27 35 41 46 47 52 42
87 82 72 69 56 48 77 80 84 78 72 67 67 70 63 63 60 55 52 45 36 27 23 17 16 18 17 16 20 26 27 26 25 29 26 31 31 32 38 46 55 56 59
93 81 68 58 47 52 78 79 89 84 76 76 73 75 72 61 51 46 39 31 24 21 19 18 15 18 22 23 28 25 27 26 30 30 31 32 38 39 45 50 52 53 47
80 78 65 62 53 72 84 88 84 81 83 84 75 72 70 62 52 44 32 23 22 19 13 13 18 21 26 26 25 24 32 32 29 29 34 38 39 42 47 49 44 41 27
82 66 48 53 48 77 97 101 98 97 90 77 76 64 54 47 37 30 25 21 18 16 16 21 22 28 29 33 33 33 31 31 30 34 37 43 46 47 42 44 35 33 43
79 75 54 17 43 63 55 105 99 98 90 77 62 50 39 34 29 24 20 16 13 15 24 20 23 27 33 41 39 38 40 40 42 44 48 51 51 49 39 31 35 33 35
67 70 77 76 70 62 56 45 99 82 75 62 52 42 33 23 19 12 5 4 10 10 14 19 23 29 37 38 40 43 45 47 47 49 51 52 45 35 30 28 32 33 37
70 76 68 68 86 95 80 63 84 70 69 61 51 44 29 19 10 8 13 18 18 12 13 28 39 42 41 45 43 35 27 27 28 30 30 29 28 28 27 27 29 31 36
71 65 80 76 87 68 60 63 62 54 59 53 42 43 35 23 15 9 13 15 19 20 21 20 22 24 21 15 10 12 16 20 20 24 26 28 29 31 36 32 32 34 38
77 71 69 80 89 70 80 77 61 50 34 41 41 45 26 15 10 12 19 26 30 26 23 19 21 17 8 10 13 14 15 21 22 29 33 30 28 30 31 31 33 29 39
55 58 63 67 63 78 86 60 64 57 39 37 28 20 8 8 14 17 19 19 17 19 16 13 8 2 10 13 16 21 24 25 31 30 30 27 26 28 30 23 19 25 35
60 47 56 55 56 62 47 46 44 35 40 48 47 42 34 36 30 25 24 24 16 20 16 10 7 6 11 20 23 26 29 26 17 19 22 25 26 24 28 29 22 27 32
51 60 49 54 52 55 52 44 48 39 27 29 33 39 42 51 53 31 29 24 23 23 21 16 14 14 17 23 29 26 25 24 26 27 30 28 25 25 27 30 24 26 29
53 52 57 51 45 52 51 45 40 43 36 25 33 39 44 52 55 42 33 29 26 21 20 21 18 21 23 25 26 26 27 24 29 33 31 27 28 28 32 30 26 26 25
56 58 55 49 44 42 44 39 37 39 45 35 29 41 48 54 51 37 34 31 29 28 26 25 25 29 31 31 30 31 31 30 30 28 27 25 23 23 27 24 29 26 24
51 48 49 44 52 46 48 46 39 36 45 41 36 38 48 59 48 48 49 42 36 33 30 30 29 31 31 33 33 36 33 33 32 30 33 30 26 26 24 27 26 22 19
58 50 45 43 45 38 37 40 32 27 33 39 34 45 53 55 49 49 48 47 42 38 36 33 32 32 31 31 33 32 30 32 32 32 31 28 28 27 25 28 27 22 22
48 51 44 43 36 37 32 31 32 28 32 32 34 44 52 47 50 48 49 51 48 42 36 36 34 33 34 37 36 35 33 32 33 32 31 31 29 26 25 26 23 19 18
38 39 40 37 38 40 39 32 34 33 32 36 42 46 49 55 52 52 57 57 52 46 39 37 38 39 38 39 35 38 40 38 33 31 32 32 30 26 22 23 23 23 17
37 37 44 39 35 37 43 40 41 36 31 32 38 43 46 48 49 54 59 59 53 50 45 44 43 41 37 36 35 34 34 34 35 36 34 30 30 32 30 27 25 23 15
44 47 53 38 35 33 36 41 43 46 39 36 38 40 44 43 46 52 58 57 53 55 50 40 35 36 38 36 35 35 34 35 40 45 39 44 43 37 33 33 30 26 21
46 47 50 52 38 32 33 38 47 49 44 42 39 38 42 46 48 57 60 57 56 54 47 42 38 36 38 35 34 35 37 37 38 39 39 42 50 46 42 39 34 31 22
Wind_Direction_500mb
330 330 328 313 296 274 259 250 240 235 226 224 217 213 210 196 192 192 201 201 198 196 190 190 199 208 217 227 250 263 271 269 273 293 303 327 323 332 317 276 288 308 319
315 315 315 315 310 306 280 248 236 221 214 215 210 207 203 195 192 195 194 199 200 195 202 202 214 222 231 245 262 285 292 289 294 298 307 310 323 303 288 286 295 297 308
311 306 306 305 314 306 276 256 240 219 213 210 208 201 192 190 192 191 194 192 196 199 203 206 221 231 247 269 280 293 303 297 291 291 294 292 287 288 282 283 292 297 302
313 304 301 301 307 299 273 241 233 217 214 210 202 196 191 190 189 187 189 194 196 203 214 217 223 242 264 274 290 300 303 304 303 291 281 286 287 291 294 297 297 299 302
316 305 298 293 297 285 264 236 236 215 208 199 195 192 188 186 184 183 191 199 205 207 210 220 232 250 265 273 290 302 306 312 311 308 300 302 306 312 310 315 316 314 311
321 310 298 290 288 278 237 237 209 199 192 186 179 184 183 181 187 192 199 202 200 205 213 224 245 248 257 276 292 296 297 306 311 319 317 314 314 310 311 323 324 328 328
324 317 308 286 267 237 212 196 188 182 179 174 179 181 177 181 184 193 196 195 199 211 217 230 246 266 271 279 279 271 291 295 299 298 299 309 304 303 310 315 318 319 320
339 323 309 290 254 212 209 183 172 169 172 172 173 175 179 174 178 186 196 203 215 217 227 244 254 259 271 275 272 280 285 292 299 283 289 293 296 298 302 308 316 320 322
8 359 328 307 259 189 177 175 170 169 168 169 172 171 176 170 178 192 197 201 217 234 247 282 262 263 268 260 271 280 278 286 281 275 275 278 285 291 298 301 314 321 327
18 20 34 70 140 142 147 167 164 172 162 161 156 157 159 170 179 188 203 224 235 259 276 257 260 262 258 257 266 273 277 281 279 272 272 275 283 287 290 287 304 304 322
21 29 52 68 75 100 113 101 146 147 150 147 152 146 151 154 151 163 193 290 290 271 238 259 251 253 255 260 269 276 279 278 277 278 282 286 284 285 276 285 293 295 301
16 38 46 51 71 78 84 77 85 100 101 108 112 110 106 97 73 8 334 321 313 295 252 242 256 261 273 280 282 285 287 285 296 301 303 304 294 287 282 285 282 284 291
26 29 42 48 58 67 72 73 73 76 85 93 94 88 93 99 91 52 3 345 327 316 272 255 262 282 283 284 301 313 314 309 311 306 307 305 302 294 295 290 289 298 298
25 26 35 41 55 54 59 55 59 55 65 89 87 90 110 87 38 347 321 315 304 293 292 292 295 301 299 317 309 299 300 305 303 298 303 303 299 294 288 288 297 301 304
27 30 29 32 36 40 49 56 60 64 57 63 57 65 40 345 349 341 346 340 322 307 313 310 295 273 324 281 286 299 289 288 292 299 300 301 306 309 301 289 295 299 304
30 35 40 41 38 40 45 49 51 59 56 47 46 55 55 26 14 1 3 12 4 355 354 17 64 360 299 301 307 309 312 322 323 303 300 302 294 302 306 291 289 293 295
29 34 34 33 43 44 40 45 40 39 43 46 45 40 29 18 14 8 8 21 15 16 6 354 340 311 309 301 304 313 313 316 317 315 314 299 297 290 294 291 283 288 291
25 29 35 35 40 38 43 47 49 45 45 59 53 35 21 9 360 355 3 10 7 359 345 334 320 308 302 300 302 305 307 305 306 305 299 303 291 290 285 284 280 279 288
24 21 21 30 29 35 40 33 38 42 32 38 32 16 8 359 354 7 13 7 353 346 333 319 308 300 297 297 299 296 297 293 294 298 297 292 299 288 283 282 276 276 285
22 22 18 19 22 19 27 23 25 30 27 11 2 360 353 344 352 5 6 0 350 342 336 326 317 311 309 302 297 297 295 291 290 292 289 278 283 281 273 279 274 273 276
12 9 14 16 26 20 24 24 15 14 25 17 6 355 348 348 3 3 359 356 349 340 334 328 322 320 317 309 306 299 297 295 291 286 285 279 267 269 269 274 268 267 270
11 11 12 8 7 7 3 10 12 13 15 12 353 345 343 354 358 358 353 348 343 338 328 319 316 317 316 306 300 300 295 287 286 285 280 271 265 270 268 272 266 264 264
20 13 6 5 6 356 357 349 350 350 348 350 344 341 347 351 352 352 347 342 341 334 324 316 312 308 304 302 291 285 281 283 283 280 277 268 264 266 267 262 255 245 251
6 358 359 4 4 4 7 10 3 2 348 353 351 349 347 347 345 342 337 338 334 331 322 306 297 297 299 301 298 290 284 279 275 272 266 266 255 254 255 265 249 237 246
10 7 7 6 12 9 4 6 5 0 1 356 347 343 341 345 339 334 332 335 329 324 323 314 299 293 293 297 298 295 289 274 270 272 269 247 249 247 251 254 247 232 227
9 4 5 7 9 12 4 359 356 355 354 349 346 344 344 337 334 337 338 336 331 326 324 320 311 299 294 293 294 289 283 280 276 276 272 255 243 243 247 253 229 225 232
Wind_Speed_850mb
71 72 62 55 53 48 57 66 72 77 90 78 64 62 61 59 54 50 40 41 40 37 31 25 23 18 14 11 11 12 14 19 28 33 34 27 16 21 12 9 25 32 25
76 82 77 66 54 46 50 68 76 86 82 74 67 64 63 59 59 54 47 44 40 35 30 25 20 14 11 12 14 14 20 24 30 37 35 23 22 19 26 26 28 36 38
77 85 85 74 63 46 62 57 67 75 79 70 60 63 65 62 62 49 44 44 40 38 32 24 21 15 16 14 15 17 25 26 27 34 38 31 26 38 39 40 41 47 48
76 78 86 84 68 53 61 66 63 79 76 64 60 64 65 62 56 52 49 48 44 38 31 22 19 16 16 16 22 20 24 29 28 26 28 30 31 41 46 51 55 51 52
83 75 75 77 68 53 58 77 65 74 71 66 66 61 57 55 59 58 55 51 42 35 24 22 20 14 18 20 18 22 30 28 24 23 25 27 27 35 41 46 47 52 42
87 82 72 69 56 48 77 80 84 78 72 67 67 70 63 63 60 55 52 45 36 27 23 17 16 18 17 16 20 26 27 26 25 29 26 31 31 32 38 46 55 56 59
93 81 68 58 47 52 78 79 89 84 76 76 73 75 72 61 51 46 39 31 24 21 19 18 15 18 22 23 28 25 27 26 30 30 31 32 38 39 45 50 52 53 47
80 78 65 62 53 72 84 88 84 81 83 84 75 72 70 62 52 44 32 23 22 19 13 13 18 21 26 26 25 24 32 32 29 29 34 38 39 42 47 49 44 41 27
82 66 48 53 48 77 97 101 98 97 90 77 76 64 54 47 37 30 25 21 18 16 16 21 22 28 29 33 33 33 31 31 30 34 37 43 46 47 42 44 35 33 43
79 75 54 17 43 63 55 105 99 98 90 77 62 50 39 34 29 24 20 16 13 15 24 20 23 27 33 41 39 38 40 40 42 44 48 51 51 49 39 31 35 33 35
67 70 77 76 70 62 56 45 99 82 75 62 52 42 33 23 19 12 5 4 10 10 14 19 23 29 37 38 40 43 45 47 47 49 51 52 45 35 30 28 32 33 37
70 76 68 68 86 95 80 63 84 70 69 61 51 44 29 19 10 8 13 18 18 12 13 28 39 42 41 45 43 35 27 27 28 30 30 29 28 28 27 27 29 31 36
71 65 80 76 87 68 60 63 62 54 59 53 42 43 35 23 15 9 13 15 19 20 21 20 22 24 21 15 10 12 16 20 20 24 26 28 29 31 36 32 32 34 38
77 71 69 80 89 70 80 77 61 50 34 41 41 45 26 15 10 12 19 26 30 26 23 19 21 17 8 10 13 14 15 21 22 29 33 30 28 30 31 31 33 29 39
55 58 63 67 63 78 86 60 64 57 39 37 28 20 8 8 14 17 19 19 17 19 16 13 8 2 10 13 16 21 24 25 31 30 30 27 26 28 30 23 19 25 35
60 47 56 55 56 62 47 46 44 35 40 48 47 42 34 36 30 25 24 24 16 20 16 10 7 6 11 20 23 26 29 26 17 19 22 25 26 24 28 29 22 27 32
51 60 49 54 52 55 52 44 48 39 27 29 33 39 42 51 53 31 29 24 23 23 21 16 14 14 17 23 29 26 25 24 26 27 30 28 25 25 27 30 24 26 29
53 52 57 51 45 52 51 45 40 43 36 25 33 39 44 52 55 42 33 29 26 21 20 21 18 21 23 25 26 26 27 24 29 33 31 27 28 28 32 30 26 26 25
56 58 55 49 44 42 44 39 37 39 45 35 29 41 48 54 51 37 34 31 29 28 26 25 25 29 31 31 30 31 31 30 30 28 27 25 23 23 27 24 29 26 24
51 48 49 44 52 46 48 46 39 36 45 41 36 38 48 59 48 48 49 42 36 33 30 30 29 31 31 33 33 36 33 33 32 30 33 30 26 26 24 27 26 22 19
58 50 45 43 45 38 37 40 32 27 33 39 34 45 53 55 49 49 48 47 42 38 36 33 32 32 31 31 33 32 30 32 32 32 31 28 28 27 25 28 27 22 22
48 51 44 43 36 37 32 31 32 28 32 32 34 44 52 47 50 48 49 51 48 42 36 36 34 33 34 37 36 35 33 32 33 32 31 31 29 26 25 26 23 19 18
38 39 40 37 38 40 39 32 34 33 32 36 42 46 49 55 52 52 57 57 52 46 39 37 38 39 38 39 35 38 40 38 33 31 32 32 30 26 22 23 23 23 17
37 37 44 39 35 37 43 40 41 36 31 32 38 43 46 48 49 54 59 59 53 50 45 44 43 41 37 36 35 34 34 34 35 36 34 30 30 32 30 27 25 23 15
44 47 53 38 35 33 36 41 43 46 39 36 38 40 44 43 46 52 58 57 53 55 50 40 35 36 38 36 35 35 34 35 40 45 39 44 43 37 33 33 30 26 21
46 47 50 52 38 32 33 38 47 49 44 42 39 38 42 46 48 57 60 57 56 54 47 42 38 36 38 35 34 35 37 37 38 39 39 42 50 46 42 39 34 31 22
Wind_Direction_850mb
330 330 328 313 296 274 259 250 240 235 226 224 217 213 210 196 192 192 201 201 198 196 190 190 199 208 217 227 250 263 271 269 273 293 303 327 323 332 317 276 288 308 319
315 315 315 315 310 306 280 248 236 221 214 215 210 207 203 195 192 195 194 199 200 195 202 202 214 222 231 245 262 285 292 289 294 298 307 310 323 303 288 286 295 297 308
311 306 306 305 314 306 276 256 240 219 213 210 208 201 192 190 192 191 194 192 196 199 203 206 221 231 247 269 280 293 303 297 291 291 294 292 287 288 282 283 292 297 302
313 304 301 301 307 299 273 241 233 217 214 210 202 196 191 190 189 187 189 194 196 203 214 217 223 242 264 274 290 300 303 304 303 291 281 286 287 291 294 297 297 299 302
316 305 298 293 297 285 264 236 236 215 208 199 195 192 188 186 184 183 191 199 205 207 210 220 232 250 265 273 290 302 306 312 311 308 300 302 306 312 310 315 316 314 311
321 310 298 290 288 278 237 237 209 199 192 186 179 184 183 181 187 192 199 202 200 205 213 224 245 248 257 276 292 296 297 306 311 319 317 314 314 310 311 323 324 328 328
324 317 308 286 267 237 212 196 188 182 179 174 179 181 177 181 184 193 196 195 199 211 217 230 246 266 271 279 279 271 291 295 299 298 299 309 304 303 310 315 318 319 320
339 323 309 290 254 212 209 183 172 169 172 172 173 175 179 174 178 186 196 203 215 217 227 244 254 259 271 275 272 280 285 292 299 283 289 293 296 298 302 308 316 320 322
8 359 328 307 259 189 177 175 170 169 168 169 172 171 176 170 178 192 197 201 217 234 247 282 262 263 268 260 271 280 278 286 281 275 275 278 285 291 298 301 314 321 327
18 20 34 70 140 142 147 167 164 172 162 161 156 157 159 170 179 188 203 224 235 259 276 257 260 262 258 257 266 273 277 281 279 272 272 275 283 287 290 287 304 304 322
21 29 52 68 75 100 113 101 146 147 150 147 152 146 151 154 151 163 193 290 290 271 238 259 251 253 255 260 269 276 279 278 277 278 282 286 284 285 276 285 293 295 301
16 38 46 51 71 78 84 77 85 100 101 108 112 110 106 97 73 8 334 321 313 295 252 242 256 261 273 280 282 285 287 285 296 301 303 304 294 287 282 285 282 284 291
26 29 42 48 58 67 72 73 73 76 85 93 94 88 93 99 91 52 3 345 327 316 272 255 262 282 283 284 301 313 314 309 311 306 307 305 302 294 295 290 289 298 298
25 26 35 41 55 54 59 55 59 55 65 89 87 90 110 87 38 347 321 315 304 293 292 292 295 301 299 317 309 299 300 305 303 298 303 303 299 294 288 288 297 301 304
27 30 29 32 36 40 49 56 60 64 57 63 57 65 40 345 349 341 346 340 322 307 313 310 295 273 324 281 286 299 289 288 292 299 300 301 306 309 301 289 295 299 304
30 35 40 41 38 40 45 49 51 59 56 47 46 55 55 26 14 1 3 12 4 355 354 17 64 360 299 301 307 309 312 322 323 303 300 302 294 302 306 291 289 293 295
29 34 34 33 43 44 40 45 40 39 43 46 45 40 29 18 14 8 8 21 15 16 6 354 340 311 309 301 304 313 313 316 317 315 314 299 297 290 294 291 283 288 291
25 29 35 35 40 38 43 47 49 45 45 59 53 35 21 9 360 355 3 10 7 359 345 334 320 308 302 300 302 305 307 305 306 305 299 303 291 290 285 284 280 279 288
24 21 21 30 29 35 40 33 38 42 32 38 32 16 8 359 354 7 13 7 353 346 333 319 308 300 297 297 299 296 297 293 294 298 297 292 299 288 283 282 276 276 285
22 22 18 19 22 19 27 23 25 30 27 11 2 360 353 344 352 5 6 0 350 342 336 326 317 311 309 302 297 297 295 291 290 292 289 278 283 281 273 279 274 273 276
12 9 14 16 26 20 24 24 15 14 25 17 6 355 348 348 3 3 359 356 349 340 334 328 322 320 317 309 306 299 297 295 291 286 285 279 267 269 269 274 268 267 270
11 11 12 8 7 7 3 10 12 13 15 12 353 345 343 354 358 358 353 348 343 338 328 319 316 317 316 306 300 300 295 287 286 285 280 271 265 270 268 272 266 264 264
20 13 6 5 6 356 357 349 350 350 348 350 344 341 347 351 352 352 347 342 341 334 324 316 312 308 304 302 291 285 281 283 283 280 277 268 264 266 267 262 255 245 251
6 358 359 4 4 4 7 10 3 2 348 353 351 349 347 347 345 342 337 338 334 331 322 306 297 297 299 301 298 290 284 279 275 272 266 266 255 254 255 265 249 237 246
10 7 7 6 12 9 4 6 5 0 1 356 347 343 341 345 339 334 332 335 329 324 323 314 299 293 293 297 298 295 289 274 270 272 269 247 249 247 251 254 247 232 227
9 4 5 7 9 12 4 359 356 355 354 349 346 344 344 337 334 337 338 336 331 326 324 320 311 299 294 293 294 289 283 280 276 276 272 255 243 243 247 253 229 225 232